Regional Weather Roundup
Issued by NWS

Home | Current Version | Previous Version | Text Only | Print | Product List | Glossary Off
Versions: 1 2 3 4 5 6 7 8 9 10 11 12 13 14 15 16 17 18 19 20 21 22 23 24 25 26 27 28 29 30 31 32 33 34 35 36 37 38 39 40 41 42 43 44 45 46 47 48 49 50

000
ASUS45 KABQ 172301
RWRNM
WEATHER ROUNDUP FOR NEW MEXICO
NATIONAL WEATHER SERVICE ALBUQUERQUE NM
400 PM MST WED DEC 17 2014

NOTE: "FAIR" MEANS FEW OR NO CLOUDS BELOW 12,000 FEET AGL WITH NO
       SIGNIFICANT WEATHER OR OBSTRUCTIONS TO VISION.

      THIS PRODUCT IS RELEASED AS TWO VERSIONS.  ONE VERSION NEAR
      THE TOP OF THE HOUR CONTAINING PRELIMINARY DATA FROM ALBUQUERQUE
      AND OTHER STATIONS.  A FINAL VERSION WITH ADDITIONAL DATA IS
      ISSUED ABOUT 10 MINUTES AFTER THE HOUR.

NMZ501-503-504-510>518-180000-
NORTHWEST PLATEAU/NORTHCENTRAL MOUNTAINS

CITY           SKY/WX    TMP DP  RH WIND       PRES   REMARKS
FARMINGTON     LGT RAIN  38  33  82 W14       29.97R WCI  30
SANTA FE       FOG       33  32  96 SW6       29.97R VSB 3/4 WCI  28
TAOS           CLOUDY    30  27  86 CALM      29.97R

$$
NMZ402-403-502-505>509-180000-
WESTCENTRAL MOUNTAINS/SOUTHWEST MOUNTAINS

CITY           SKY/WX    TMP DP  RH WIND       PRES   REMARKS
GALLUP         CLOUDY    35  30  82 SW9       30.01R WCI  28
GRANTS         CLOUDY    39  32  76 W5        30.01R
SILVER CITY    LGT RAIN  41  36  81 W12G24    30.08R

$$
NMZ407-409-411-412-180000-
SOUTHERN DESERTS

CITY           SKY/WX    TMP DP  RH WIND       PRES   REMARKS
DEMING         LGT RAIN  46  40  79 W13       30.06R
HOLLOMAN AFB   PTCLDY    56  32  40 SW15G22   30.00R
ALAMOGORDO     MOCLDY    55  32  41 SW10G21   30.02S
T OR C         MOSUNNY   53  28  38 SW13      29.97R

$$
NMZ519>523-180000-
CENTRAL VALLEYS/CENTRAL HIGHLANDS

CITY           SKY/WX    TMP DP  RH WIND       PRES   REMARKS
ALBUQUERQUE    LGT RAIN  42  36  79 SW8       30.00R
DOUBLE EAGLE   RAIN      39  36  87 SE6       29.99R WCI  35
CLINES CORNERS MOCLDY    37  30  75 W22G29    29.93R WCI  26
BELEN          CLOUDY    44  36  73 NW8       29.99R
SOCORRO        NOT AVBL

$$
NMZ524>526-539-540-180000-
SOUTHCENTRAL MOUNTAINS

CITY           SKY/WX    TMP DP  RH WIND       PRES   REMARKS
RUIDOSO        MOCLDY    39  32  75 SW30      29.99S WCI  27

$$
NMZ527>531-180000-
NORTHEAST HIGHLANDS/NORTHEAST PLAINS

CITY           SKY/WX    TMP DP  RH WIND       PRES   REMARKS
LAS VEGAS      PTCLDY    40  26  57 SW21      29.90R WCI  30
RATON          CLOUDY    39  25  57 SW3       29.88R
CLAYTON        CLOUDY    45  29  53 SW10      29.88R

$$
NMZ532>537-180000-
EASTCENTRAL PLAINS

CITY           SKY/WX    TMP DP  RH WIND       PRES   REMARKS
TUCUMCARI      PTCLDY    55  30  38 SW15      29.88R
CANNON AFB     CLEAR     55  30  38 W16       29.91S
CLOVIS AIRPORT PTCLDY    54  32  43 SW13      29.91S

$$
NMZ028-029-538-180000-
SOUTHEAST PLAINS

CITY           SKY/WX    TMP DP  RH WIND       PRES   REMARKS
ROSWELL        CLEAR     61  29  29 W14       29.93R
ARTESIA        PTCLDY    61  28  29 SW20      29.96R
CARLSBAD       CLEAR     62  28  27 SW21G32   29.95R
HOBBS          CLEAR     59  28  31 SW23G32   29.96R


$$


USA.gov is the U.S. government's official web portal to all federal, state and local government web resources and services.